STARLINK-1316, 45415

Orbit data source: Space-Track

STARLINK-1316, 45415 is a payload satellite owned by SpaceX/Seattle (US) in LEO that was launched on Wed, 18 Mar 2020 UTC via an FALCON 9 launch vehicle from the Air Force Eastern Test Range (AFETR). Payload-class satellites include a variety of spacecraft equipped with specific instruments for various scientific and technological missions. These include communications satellites like Starlink; space stations such as the ISS; scientific satellites like the Hubble; Earth observation satellites from companies like Planet Labs, Umbra, and HawkEye 360; GPS; miniature CubeSats for education and research; and military/defense satellites.

Loading next visibility...
Identifier
45415, 2020-019BH
Orbit
LEO
Country
Flag of USUS
Related business
Manufacturer
SpaceX/Seattle
Mission
Partially operational Commercial Communications
Bus & Motor
STARLINK, Unknown motor
Mass
260 kg wet, ~248 kg dry
Launch date (UTC)
2020-03-18 (6 years ago)
Launch vehicle
FALCON 9
Launch site
Air Force Eastern Test Range (AFETR)
Object type
Payload
Rocket body
Debris
Shape & HBR
Box + 1 Pan, 10.1 m
Radar Cross Section
13.562 m², Large (>1 m²)

Expand to show TLE details & history
Last TLE update: 8 hours ago

TLE from 8 hours ago
0 STARLINK-1316
1 45415U 20019BH  26120.06462260  .00066333  00000-0  19111-2 0  9994
2 45415  53.1568 249.8201 0004047 304.6697  55.3924 15.35142066337874
Epoch: 2026-04-30T01:33Z
TLE epoch observation values (Epoch: 2026-04-30T01:33:03.392Z)
Latitude
-0.00004°
Longitude
8.53935°
Altitude
459.829 km
Speed
7.639 km/s
True Right ascension
16h 39m 16s
True Declination
0° 00' 00"
Sunlit
Object was in full shadow at epoch
Visualization orbit readout
Latitude
Unknown
Longitude
Unknown
Altitude
Unknown
Speed
Unknown
Apparent Right ascension
Unknown
Apparent Declination
Unknown
Sunlit
N/A
Visualization observer readout
Local Sidereal Time
16:40:05
Azimuth
Unknown
Elevation
Unknown
Doppler factor
Unknown
Orbital elements
Apogee altitude
463.524 km
Perigee altitude
457.988 km
Semi-major axis
6,838.893 km
Eccentricity
0.0004
Inclination
53.1568°
RAAN
249.8201°
Arg. of periapsis
304.6697°
True anomaly
55.43058°
Mean anomaly
55.3924°
Eccentric anomaly
55.41149°
Mean motion
3.83764 °/min
Orbital period
93.81 mins
BSTAR
0.0019111
Loading maneuver chart data...
Computing Atmospheric mass density...
Loading historical data...
Loading historical data...
Loading historical data...
Loading historical data...
Loading historical data...
Loading historical data...
Loading historical data...

Documentation

Showing up to 5 results
|